This is the latest recevied weather packets stored in our database for station/object LU5DTF-1. If no packets are shown the sender has not sent any weather packets the latest 1 day(s).
| Time | Temp. | Humidity | Pressure | Rain* | Wind** | Luminosity | Snow |
|---|---|---|---|---|---|---|---|
| 1778007301 | 18.89° C | 62% | 1013.8 hPa | 0 mm | 1.79 m/s, 187° | - | - |
| 1778007001 | 18.89° C | 63% | 1013.7 hPa | 0 mm | 1.79 m/s, 188° | - | - |
| 1778006701 | 18.89° C | 61% | 1013.8 hPa | 0 mm | 1.34 m/s, 197° | - | - |
| 1778006401 | 19.44° C | 60% | 1013.7 hPa | 0 mm | 1.34 m/s, 201° | - | - |
| 1778006101 | 19.44° C | 58% | 1013.6 hPa | 0 mm | 2.24 m/s, 214° | - | - |
| 1778005801 | 18.89° C | 59% | 1013.8 hPa | 0 mm | 2.68 m/s, 220° | - | - |
| 1778005501 | 19.44° C | 59% | 1013.7 hPa | 0 mm | 2.24 m/s, 219° | - | - |
| 1778005201 | 18.89° C | 59% | 1013.6 hPa | 0 mm | 1.79 m/s, 216° | - | - |
| 1778004901 | 18.89° C | 60% | 1013.6 hPa | 0 mm | 1.34 m/s, 217° | - | - |
| 1778004601 | 18.89° C | 60% | 1013.7 hPa | 0 mm | 1.79 m/s, 220° | - | - |
| 1778004301 | 18.89° C | 61% | 1013.8 hPa | 0 mm | 2.24 m/s, 225° | - | - |
| 1778004002 | 18.89° C | 61% | 1013.8 hPa | 0 mm | 3.13 m/s, 231° | - | - |
| 1778003701 | 18.33° C | 60% | 1013.6 hPa | 0 mm | 3.13 m/s, 232° | - | - |
| 1778003401 | 18.33° C | 61% | 1013.7 hPa | 0 mm | 2.68 m/s, 231° | - | - |
| 1778003101 | 18.33° C | 61% | 1013.6 hPa | 0 mm | 2.68 m/s, 228° | - | - |
| 1778002801 | 18.33° C | 61% | 1013.4 hPa | 0 mm | 2.68 m/s, 219° | - | - |
| 1778002501 | 18.89° C | 61% | 1013.1 hPa | 0 mm | 3.13 m/s, 220° | - | - |
| 1778002201 | 18.89° C | 60% | 1013.2 hPa | 0 mm | 4.02 m/s, 225° | - | - |
| 1778001901 | 18.89° C | 59% | 1013.3 hPa | 0 mm | 4.47 m/s, 224° | - | - |
| 1778001602 | 18.89° C | 59% | 1013.3 hPa | 0 mm | 4.02 m/s, 217° | - | - |
| 1778001301 | 18.89° C | 59% | 1013 hPa | 0 mm | 3.58 m/s, 212° | - | - |
| 1778001002 | 18.89° C | 59% | 1013.1 hPa | 0 mm | 3.13 m/s, 204° | - | - |
| 1778000701 | 18.89° C | 62% | 1013.2 hPa | 0 mm | 2.68 m/s, 199° | - | - |
| 1778000402 | 18.89° C | 61% | 1013.4 hPa | 0 mm | 2.24 m/s, 210° | - | - |
| 1778000102 | 18.89° C | 62% | 1013.4 hPa | 0 mm | 1.79 m/s, 202° | - | - |
* Rain latest hour (hover to see other rain measurements)
** Current wind speed in m/s (hover to see current wind gust speed)